Location: Fours
(44.3167°N, 6.7000°E)
Time: 20:47:36
(UTC+00:00)

USA 215 - Visible Passes

Search period start: 25 May 2022 00:00
Search period end: 04 June 2022 00:00
Orbit: 1099 x 1108 km, 123.0° (Epoch: 15 May)

Date Brightness Start Highest point End Pass type
(mag) Time Alt. Az. Time Alt. Az. Time Alt. Az.
25 May 4.9 01:03:27 10° NE 01:09:04 32° N 01:14:43 10° WNW visible
25 May 5.1 02:45:23 10° ENE 02:50:58 31° N 02:56:32 10° NW visible
25 May 4.1 20:55:23 10° ENE 21:00:36 25° SE 21:01:46 24° SE visible
25 May 3.1 22:37:34 10° NE 22:44:10 87° SE 22:49:02 20° SW visible
26 May 4.4 00:20:47 10° NE 00:26:48 40° NNW 00:32:49 10° W visible
26 May 5.1 02:03:21 10° NE 02:08:47 29° N 02:14:14 10° WNW visible
26 May 5.0 20:16:08 10° ESE 20:16:25 10° ESE 20:16:25 10° ESE visible
26 May 3.4 21:54:57 10° ENE 22:01:17 49° SE 22:03:42 34° S visible
26 May 3.7 23:37:58 10° NE 23:44:22 59° NNW 23:50:46 10° WSW visible
27 May 4.9 01:21:00 10° NE 01:26:37 32° N 01:32:15 10° WNW visible
27 May 5.0 03:02:57 10° ENE 03:08:30 31° N 03:14:05 10° NW visible
27 May 4.1 21:12:56 10° ENE 21:18:10 25° SE 21:18:29 25° SE visible
27 May 3.1 22:55:08 10° NE 23:01:44 87° SE 23:05:47 26° SW visible
28 May 4.4 00:38:21 10° NE 00:44:21 40° NNW 00:50:22 10° W visible
28 May 5.1 02:20:54 10° NE 02:26:20 29° N 02:31:48 10° WNW visible
28 May 3.4 22:12:31 10° ENE 22:18:51 49° SE 22:20:40 40° S visible
28 May 3.7 23:55:31 10° NE 00:01:55 59° NNW 00:07:58 12° WSW visible
29 May 4.8 01:38:34 10° NE 01:44:10 32° N 01:49:48 10° WNW visible
29 May 4.2 21:30:28 10° ENE 21:35:36 25° ESE 21:35:36 25° ESE visible
29 May 3.2 23:12:42 10° NE 23:19:17 88° SE 23:22:54 29° SW visible
30 May 4.4 00:55:54 10° NE 01:01:54 40° NNW 01:07:55 10° W visible
30 May 5.0 02:38:27 10° NE 02:43:53 29° N 02:49:20 10° WNW visible
30 May 3.4 22:30:04 10° ENE 22:36:24 50° SE 22:37:54 42° S visible
31 May 3.7 00:13:05 10° NE 00:19:29 58° NNW 00:25:13 13° WSW visible
31 May 4.8 01:56:07 10° NE 02:01:44 32° N 02:07:21 10° WNW visible
31 May 4.2 21:48:01 10° ENE 21:52:56 25° ESE 21:52:56 25° ESE visible
31 May 3.2 23:30:15 10° NE 23:36:50 88° SE 23:40:15 31° SW visible
01 Jun 4.4 01:13:28 10° NE 01:19:28 40° NNW 01:25:28 10° W visible
01 Jun 5.0 02:56:00 10° NE 03:01:27 29° N 03:06:54 10° WNW visible
01 Jun 3.4 22:47:37 10° ENE 22:53:57 50° SE 22:55:19 44° SSE visible
02 Jun 3.7 00:30:38 10° NE 00:37:02 58° NNW 00:42:39 14° WSW visible
02 Jun 4.8 02:13:39 10° NE 02:19:17 32° N 02:24:54 10° WNW visible
02 Jun 4.3 22:05:34 10° ENE 22:10:26 25° ESE 22:10:26 25° ESE visible
02 Jun 3.2 23:47:48 10° NE 23:54:24 88° SE 23:57:45 32° SW visible
03 Jun 4.4 01:31:01 10° NE 01:37:01 40° NNW 01:43:01 10° W visible
03 Jun 5.0 03:13:33 10° NE 03:18:59 29° N 03:24:26 10° WNW visible
03 Jun 3.4 23:05:10 10° ENE 23:11:31 50° SE 23:12:52 44° SSE visible
